FENGYUN 1C DEB, 31226

Orbit data source: Space-Track

FENGYUN 1C DEB, 31226 is space debris in SSO originally from a launch on Mon, 10 May 1999 UTC launched from the Taiyaun Space Center, China (TSC). Fengyun 1C debris stems from the Chinese weather satellite Fengyun-1C, which was intentionally destroyed by a Chinese anti-satellite missile in 2007. This event dramatically increased the amount of space debris, with thousands of trackable fragments posing hazards to satellites and human spaceflight. The Fengyun 1C debris cloud has become a focal point in discussions about space sustainability and the need for international regulations to prevent the creation of new debris.

Loading next visibility...
Identifier
31226, 1999-025BLG
Orbit
SSO
Country
Flag of CNCN / PRC
Related business
Manufacturer
Unknown
Mission
Spacecraft
Bus & Motor
Unknown
Mass
Unknown
Launch date (UTC)
1999-05-10 (27 years ago)
Launch vehicle
Unknown
Launch site
Taiyaun Space Center, China (TSC)
Object type
Payload
Rocket body
Debris
Shape & HBR
Unknown shape, 0.1 m
Radar Cross Section
Small (<0.1 m²)

Expand to show TLE details & history
Last TLE update: 3 days ago

TLE from 3 days ago
0 FENGYUN 1C DEB
1 31226U 99025BLG 26164.24260632  .00000755  00000-0  30063-3 0  9995
2 31226  98.3560 160.9127 0127322  19.6867 340.9166 14.26988827646568
Epoch: 2026-06-13T05:49Z
TLE epoch observation values (Epoch: 2026-06-13T05:49:21.186Z)
Latitude
0.00002°
Longitude
172.01392°
Altitude
718.466 km
Speed
7.541 km/s
True Right ascension
10h 43m 39s
True Declination
0° 00' 00"
Sunlit
Object was in daylight at epoch
Visualization orbit readout
Latitude
Unknown
Longitude
Unknown
Altitude
Unknown
Speed
Unknown
Apparent Right ascension
Unknown
Apparent Declination
Unknown
Sunlit
N/A
Visualization observer readout
Local Sidereal Time
06:28:10
Azimuth
Unknown
Elevation
Unknown
Doppler factor
Unknown
Orbital elements
Apogee altitude
890.326 km
Perigee altitude
707.566 km
Semi-major axis
7,177.083 km
Eccentricity
0.01273
Inclination
98.356°
RAAN
160.9127°
Arg. of periapsis
19.6867°
True anomaly
340.43231°
Mean anomaly
340.9166°
Eccentric anomaly
340.67519°
Mean motion
3.56961 °/min
Orbital period
100.85 mins
BSTAR
0.00030063
Loading maneuver chart data...
Computing Atmospheric mass density...
Loading historical data...
Loading historical data...
Loading historical data...
Loading historical data...
Loading historical data...
Loading historical data...
Loading historical data...

Documentation

Showing up to 5 results
|